IQ1LY-3 Weather Reports


Display with metric or nautical units.
time (UTC)temp
F
wind
direction
speed
MPH
gust
MPH
rain 1hr
in
rain 24hr
in
rain mn
in
humidity
%
barometer
mb
20260507103322 69 68 3.0 4.0 0.00 0.00 0.00 70 1012.9
20260507102249 69 135 3.0 11.0 0.00 0.00 0.00 70 1012.9
20260507101249 69 52 6.0 8.0 0.00 0.00 0.00 71 1012.9
20260507100144 69 113 2.0 4.0 0.00 0.00 0.00 71 1012.9
20260507095113 69 135 4.0 5.0 0.00 0.00 0.00 71 1012.9
20260507094112 69 113 2.0 8.0 0.00 0.00 0.00 70 1012.9
20260507093111 70 98 2.0 3.0 0.00 0.00 0.00 70 1012.9
20260507092109 69 68 2.0 2.0 0.00 0.00 0.00 69 1012.9
20260507091109 69 90 1.0 1.0 0.00 0.00 0.00 70 1012.9
20260507090108 69 158 6.0 6.0 0.00 0.00 0.00 70 1012.5
20260507085107 69 83 2.0 4.0 0.00 0.00 0.00 69 1012.5
20260507084106 69 113 0.0 5.0 0.00 0.00 0.00 69 1012.5
20260507083105 69 135 5.0 5.0 0.00 0.00 0.00 68 1012.2
20260507082104 69 54 2.0 3.0 0.00 0.00 0.00 67 1012.2
20260507081103 69 90 0.0 0.0 0.00 0.00 0.00 68 1012.2
20260507075102 69 113 0.0 0.0 0.00 0.00 0.00 67 1012.2
20260507072537 67 90 0.0 0.0 0.00 0.00 0.00 72 1012.2
20260507071536 67 113 0.0 0.0 0.00 0.00 0.00 73 1011.9
20260507070535 66 158 0.0 0.0 0.00 0.00 0.00 74 1012.2
20260507065534 66 158 0.0 0.0 0.00 0.00 0.00 75 1011.9
20260507064533 65 135 0.0 0.0 0.00 0.00 0.00 77 1011.9
20260507063533 64 135 0.0 1.0 0.00 0.00 0.00 78 1011.5
20260507062532 63 270 0.0 0.0 0.00 0.00 0.00 80 1011.5
20260507061500 62 293 0.0 0.0 0.00 0.00 0.00 83 1011.5
20260507060459 60 203 0.0 0.0 0.00 0.00 0.00 86 1011.5
20260507054021 55 270 0.0 0.0 0.00 0.00 0.00 88 1011.2
20260507053020 55 270 0.0 0.0 0.00 0.00 0.00 88 1011.2
20260507052019 55 270 0.0 0.0 0.00 0.00 0.00 88 1011.2
20260507051018 54 338 0.0 0.0 0.00 0.00 0.00 88 1010.8
20260507050017 54 270 0.0 0.0 0.00 0.00 0.00 88 1010.8
20260507045016 53 23 0.0 0.0 0.00 0.00 0.00 88 1010.8
20260507044015 53 270 0.0 0.0 0.00 0.00 0.00 88 1010.8
20260507043014 53 270 0.0 0.0 0.00 0.00 0.00 88 1010.5
20260507042013 53 338 0.0 0.0 0.00 0.00 0.00 88 1010.5
20260507041012 53 158 0.0 0.0 0.00 0.00 0.00 88 1010.5
20260507040011 53 270 0.0 0.0 0.00 0.00 0.00 88 1010.5
20260507034939 53 68 0.0 0.0 0.00 0.00 0.00 88 1010.5
20260507033906 53 270 0.0 0.0 0.00 0.00 0.00 89 1010.5
20260507032906 53 248 0.0 0.0 0.00 0.00 0.00 89 1010.5
20260507031905 53 203 0.0 0.0 0.00 0.00 0.00 89 1010.5
20260507030905 53 270 0.0 0.0 0.00 0.00 0.00 89 1010.5
20260507025904 53 293 0.0 0.0 0.00 0.00 0.00 89 1010.5
20260507024903 53 315 0.0 0.0 0.00 0.00 0.00 89 1010.5
20260507023902 53 293 0.0 0.0 0.00 0.00 0.00 89 1010.2
20260507022758 53 270 0.0 0.0 0.00 0.00 0.00 89 1010.2
20260507021758 53 248 0.0 0.0 0.00 0.00 0.00 89 1010.2
20260507020757 53 270 0.0 0.0 0.00 0.00 0.00 89 1010.2
20260507015756 53 315 0.0 0.0 0.00 0.00 0.00 89 1010.2
20260507014756 53 338 0.0 0.0 0.00 0.00 0.00 89 1009.8
20260507013755 53 225 0.0 0.0 0.00 0.00 0.00 89 1010.2
20260507012753 53 23 0.0 0.0 0.00 0.00 0.00 89 1009.8
20260507011752 53 293 0.0 0.0 0.00 0.00 0.00 88 1009.8
20260507010751 53 293 0.0 0.0 0.00 0.00 0.00 88 1009.8
20260507005719 53 270 0.0 0.0 0.00 0.00 0.00 88 1010.2
20260507004718 53 293 0.0 0.0 0.00 0.00 0.00 88 1010.2
20260507003717 53 270 0.0 0.0 0.00 0.00 0.00 88 1010.2
20260507002645 53 270 0.0 0.0 0.00 0.00 0.00 87 1010.2
20260507001644 53 270 0.0 0.0 0.00 0.00 0.00 87 1010.2
20260507000643 53 270 0.0 0.0 0.00 0.00 0.00 87 1009.8
20260506235642 53 270 0.0 0.0 0.00 0.00 0.00 87 1009.8
20260506234641 53 270 0.0 0.0 0.00 0.00 0.00 87 1009.8
20260506233640 54 270 0.0 0.0 0.00 0.00 0.00 86 1010.2
20260506232640 54 338 0.0 0.0 0.00 0.00 0.00 86 1010.2
20260506231639 54 23 0.0 0.0 0.00 0.00 0.00 86 1009.8
20260506230638 54 270 0.0 0.0 0.00 0.00 0.00 86 1009.8
20260506225637 54 293 0.0 0.0 0.00 0.00 0.00 86 1009.8
20260506224636 54 270 0.0 0.0 0.00 0.00 0.00 85 1009.8
20260506223636 54 293 0.0 0.0 0.00 0.00 0.00 85 1009.8
20260506222635 55 270 0.0 0.0 0.00 0.00 0.00 84 1009.8
20260506221634 55 270 0.0 0.0 0.00 0.00 0.00 84 1009.8
20260506220633 55 270 0.0 0.0 0.00 0.00 0.00 83 1009.8
20260506215601 56 270 0.0 0.0 0.00 0.00 0.00 83 1009.8
20260506214601 56 113 0.0 0.0 0.00 0.00 0.00 82 1009.8
20260506213600 56 90 0.0 0.0 0.00 0.00 0.00 82 1009.8
20260506212559 57 135 0.0 0.0 0.00 0.00 0.00 81 1009.5
20260506211558 57 68 0.0 0.0 0.00 0.00 0.00 80 1009.5
20260506210557 57 225 0.0 0.0 0.00 0.00 0.00 80 1009.5
20260506205525 58 225 0.0 0.0 0.00 0.00 0.00 79 1009.5
20260506204525 58 158 0.0 0.0 0.00 0.00 0.00 79 1009.5
20260506203524 58 270 0.0 0.0 0.00 0.00 0.00 78 1009.1
20260506202523 58 293 0.0 0.0 0.00 0.00 0.00 77 1009.1
20260506201450 59 293 0.0 0.0 0.00 0.00 0.00 76 1008.8
20260506200449 59 293 0.0 0.0 0.00 0.00 0.00 75 1008.8
20260506195417 60 293 0.0 0.0 0.00 0.00 0.00 73 1008.5
20260506194417 61 68 0.0 0.0 0.00 0.00 0.00 72 1008.5
20260506193416 61 270 0.0 0.0 0.00 0.00 0.00 69 1008.1
20260506192415 62 248 0.0 0.0 0.00 0.00 0.00 68 1008.1
20260506191343 62 248 0.0 0.0 0.00 0.00 0.00 68 1007.8
20260506190342 63 248 0.0 0.0 0.00 0.00 0.00 68 1007.8
20260506185341 64 248 0.0 0.0 0.00 0.00 0.00 65 1007.8
20260506184340 65 203 0.0 0.0 0.00 0.00 0.00 63 1007.5
20260506183339 66 225 0.0 0.0 0.00 0.00 0.00 61 1007.5
20260506182338 66 270 0.0 0.0 0.00 0.00 0.00 61 1007.5
20260506181337 66 158 0.0 2.0 0.00 0.00 0.00 60 1007.1
20260506180336 67 173 2.0 13.0 0.00 0.00 0.00 59 1007.1
20260506175335 67 180 0.0 11.0 0.00 0.00 0.00 59 1007.1
20260506174335 67 180 6.0 8.0 0.00 0.00 0.00 58 1006.8
20260506173334 67 241 5.0 5.0 0.00 0.00 0.00 57 1006.8
20260506172333 68 248 2.0 9.0 0.00 0.00 0.00 58 1006.8
20260506171300 68 270 1.0 4.0 0.00 0.00 0.00 58 1006.8
20260506170259 68 270 3.0 4.0 0.00 0.00 0.00 59 1006.8
20260506165258 69 248 0.0 3.0 0.00 0.00 0.00 60 1006.8
20260506164226 69 270 3.0 7.0 0.00 0.00 0.00 60 1006.4
20260506163225 69 203 4.0 6.0 0.00 0.00 0.00 60 1006.4
20260506162224 70 162 5.0 6.0 0.00 0.00 0.00 59 1006.4
20260506161223 71 135 3.0 6.0 0.00 0.00 0.00 59 1006.8
20260506160143 71 180 6.0 6.0 0.00 0.00 0.00 59 1006.4
20260506155112 71 239 3.0 6.0 0.00 0.00 0.00 59 1006.4
20260506154111 71 158 6.0 6.0 0.00 0.00 0.00 61 1006.4
20260506153039 71 248 3.0 8.0 0.00 0.00 0.00 60 1006.4
20260506152038 71 248 4.0 4.0 0.00 0.00 0.00 62 1006.4
20260506151037 70 135 2.0 7.0 0.00 0.00 0.00 63 1006.4
20260506145934 70 162 2.0 7.0 0.00 0.00 0.00 64 1006.8
20260506144933 70 216 4.0 6.0 0.00 0.00 0.00 63 1006.8
20260506143932 70 100 3.0 11.0 0.00 0.00 0.00 62 1006.8
20260506142931 71 180 13.0 14.0 0.00 0.00 0.00 61 1006.8
20260506141859 71 278 4.0 4.0 0.00 0.00 0.00 60 1006.8
20260506140858 72 270 3.0 3.0 0.00 0.00 0.00 58 1006.8
20260506135858 72 170 2.0 10.0 0.00 0.00 0.00 58 1006.8
20260506134857 72 211 9.0 10.0 0.00 0.00 0.00 57 1006.8
20260506133856 73 113 1.0 7.0 0.00 0.00 0.00 54 1006.8
20260506132824 72 225 7.0 7.0 0.00 0.00 0.00 56 1006.8
20260506131752 72 135 0.0 16.0 0.00 0.00 0.00 57 1006.8
20260506130750 72 219 2.0 4.0 0.00 0.00 0.00 58 1006.8
20260506125750 72 182 5.0 7.0 0.00 0.00 0.00 58 1006.8
20260506124749 72 151 3.0 5.0 0.00 0.00 0.00 57 1007.1
20260506123717 71 266 2.0 9.0 0.00 0.00 0.00 59 1007.1
20260506122716 71 278 5.0 9.0 0.00 0.00 0.00 60 1007.1
20260506121644 71 248 0.0 8.0 0.00 0.00 0.00 61 1007.1
20260506120510 70 165 6.0 8.0 0.00 0.00 0.00 65 1007.1
20260506115509 69 203 3.0 8.0 0.00 0.00 0.00 65 1007.1
20260506114509 69 180 8.0 12.0 0.00 0.00 0.00 65 1007.1
20260506113508 70 159 10.0 11.0 0.00 0.00 0.00 64 1007.1
20260506112507 70 203 2.0 10.0 0.00 0.00 0.00 64 1007.1
20260506111507 70 225 6.0 11.0 0.00 0.00 0.00 63 1007.5
20260506110506 70 272 8.0 11.0 0.00 0.00 0.00 63 1007.5
20260506105505 69 189 10.0 11.0 0.00 0.00 0.00 66 1007.1
20260506104504 68 207 9.0 11.0 0.00 0.00 0.00 66 1007.5